Weather reports worldwide

Advertisment
Montauban, France (7540): temperature & dewpoint: 18.10.2020 05:00:00 - 24.10.2020 05:00:00 (CEST)Montauban, France (7540): temperature 5cm: 18.10.2020 05:00:00 - 24.10.2020 05:00:00 (CEST)Montauban, France (7540): temperature -20cm & temperature -100cm: 18.10.2020 05:00:00 - 24.10.2020 05:00:00 (CEST)Montauban, France (7540): wind speed & gusts: 18.10.2020 05:00:00 - 24.10.2020 05:00:00 (CEST)Montauban, France (7540): wind direction: 18.10.2020 05:00:00 - 24.10.2020 05:00:00 (CEST)Montauban, France (7540): reduced air pressure: 18.10.2020 05:00:00 - 24.10.2020 05:00:00 (CEST)Montauban, France (7540): visibility: 18.10.2020 05:00:00 - 24.10.2020 05:00:00 (CEST)Montauban, France (7540): sunshine duration: 18.10.2020 05:00:00 - 24.10.2020 05:00:00 (CEST)Montauban, France (7540): precipitation: 18.10.2020 05:00:00 - 24.10.2020 05:00:00 (CEST)
Date & Time tt [°C] td [°C] tt 5cm [°C] tt -20cm [°C] tt -100cm [°C] ff [km/h] ff [kn] fx [km/h] fx [kn] dd ppp [hPa] vv [km] sd [min] rr [mm]
24.10.2020 05:00:00 - - - - - - - - - - - - - -
24.10.2020 04:00:00 11,1 10,3 8,6 15,8 16,8 5 3 10 5 SW 1023,4 20 0 0,0
24.10.2020 03:00:00 11,5 10,9 7,9 15,9 16,8 3 1 10 5 SW 1023,6 20 0 0,0
24.10.2020 02:00:00 11,5 10,4 8,5 15,9 16,8 4 2 10 5 SW 1023,5 20 0 0,0
24.10.2020 01:00:00 12,3 10,9 11,0 16,0 16,8 6 3 13 7 WSW 1023,2 20 0 0,0
24.10.2020 00:00:00 12,5 11,1 10,6 16,0 16,8 8 5 14 8 WSW 1022,9 20 0 0,0
23.10.2020 23:00:00 11,8 11,3 8,2 16,1 16,8 5 3 9 5 SW 1022,7 20 0 0,0
23.10.2020 22:00:00 11,7 11,1 7,7 16,1 16,8 5 3 9 5 SW 1022,1 20 0 0,0
23.10.2020 21:00:00 11,4 10,6 7,8 16,1 16,8 3 2 7 4 SSW 1021,8 14 0 0,0
23.10.2020 20:00:00 12,1 10,8 9,0 16,0 16,8 3 1 4 2 S 1021,1 19 0 0,0
23.10.2020 19:00:00 15,3 11,3 12,8 16,0 16,7 2 1 16 9 N 1020,5 20 34 0,0
23.10.2020 18:00:00 16,5 11,8 17,8 15,9 16,8 9 5 26 14 NNW 1019,7 20 45 0,0
23.10.2020 17:00:00 16,9 13,2 15,5 15,9 16,8 6 3 32 17 NNW 1019,2 20 9 0,2
23.10.2020 16:00:00 16,5 14,3 16,2 15,8 16,7 9 5 16 9 SSW 1018,2 20 0 0,0
23.10.2020 15:00:00 16,7 13,8 16,8 15,7 16,8 8 4 14 7 SW 1018,1 20 0 0,2
23.10.2020 14:00:00 17,0 13,7 17,0 15,7 16,7 10 5 22 12 W 1018,1 20 0 0,0
23.10.2020 13:00:00 16,7 13,6 16,5 15,7 16,7 15 8 27 15 W 1018,2 20 18 0,0
23.10.2020 12:00:00 16,0 14,7 14,9 15,7 16,7 5 3 16 9 W 1017,8 20 2 0,4
23.10.2020 11:00:00 14,8 14,0 14,3 15,7 16,7 9 5 26 14 W 1017,4 20 0 6,9
23.10.2020 10:00:00 15,5 15,0 15,2 15,7 16,7 3 2 13 7 NNW 1016,1 11 0 0,8
23.10.2020 09:00:00 15,3 14,8 14,6 15,7 16,7 5 3 11 6 NW 1015,6 8 0 0,0
23.10.2020 08:00:00 15,3 14,8 14,0 15,7 16,7 3 2 5 3 NW 1015,0 10 0 0,2
23.10.2020 07:00:00 15,2 14,6 13,8 15,7 16,7 2 1 4 2 SSE 1014,4 6 0 0,2
23.10.2020 06:00:00 15,2 14,4 13,9 15,7 16,7 2 1 8 4 SSW 1014,2 12 0 0,2
23.10.2020 05:00:00 15,4 14,4 14,2 15,7 16,7 2 1 7 4 SE 1014,0 19 0 0,0
23.10.2020 04:00:00 14,9 13,8 13,6 15,7 16,7 3 2 6 3 SE 1014,1 17 0 0,0
23.10.2020 03:00:00 15,9 13,7 14,7 15,7 16,7 0 0 5 3 N 1014,0 20 0 0,0
23.10.2020 02:00:00 16,5 14,0 15,3 15,7 16,7 3 2 16 8 NW 1014,0 20 0 0,0
23.10.2020 01:00:00 16,3 13,2 14,3 15,7 16,7 8 4 10 6 WNW 1013,0 20 0 0,0
23.10.2020 00:00:00 17,1 12,6 14,8 15,7 16,7 0 0 9 5 N 1012,6 20 0 0,0
22.10.2020 23:00:00 18,7 12,7 17,3 15,7 16,7 9 5 39 21 SE 1012,2 20 0 0,0
22.10.2020 22:00:00 19,0 12,3 17,7 15,7 16,7 25 14 48 26 SSE 1011,9 20 0 0,0
22.10.2020 21:00:00 19,0 12,7 17,5 15,6 16,7 29 16 53 29 SSE 1011,6 20 0 0,0
22.10.2020 20:00:00 19,2 12,5 18,0 15,6 16,7 14 8 28 15 SE 1012,5 20 0 0,0
22.10.2020 19:00:00 19,4 13,1 18,2 15,6 16,7 16 9 27 15 SE 1012,1 20 0 0,0
22.10.2020 18:00:00 19,6 13,3 18,5 15,5 16,7 10 5 27 15 SE 1012,1 20 0 0,0
22.10.2020 17:00:00 20,1 13,5 19,5 15,5 16,7 11 6 28 15 ESE 1012,0 11 0 0,0
22.10.2020 16:00:00 20,5 13,9 20,6 15,4 16,7 9 5 36 20 SE 1012,2 16 0 0,0
22.10.2020 15:00:00 20,7 14,3 19,9 15,4 16,7 16 9 29 15 SE 1012,4 20 0 0,0
22.10.2020 14:00:00 19,9 14,9 17,1 15,4 16,7 9 5 23 13 SE 1013,3 20 0 0,2
22.10.2020 13:00:00 16,6 15,0 16,0 15,4 16,7 0 0 5 3 N 1013,7 14 0 0,0
22.10.2020 12:00:00 15,8 14,5 15,3 15,4 16,7 3 2 12 6 N 1013,6 13 0 0,2
22.10.2020 11:00:00 15,3 13,8 14,7 15,4 16,7 2 1 8 5 N 1013,3 14 0 0,0
22.10.2020 10:00:00 14,7 13,9 13,5 15,4 16,7 0 0 9 5 N 1013,1 20 0 0,0
22.10.2020 09:00:00 14,2 13,4 12,7 15,4 16,7 0 0 7 4 N 1012,6 20 0 0,0
22.10.2020 08:00:00 14,6 13,5 12,6 15,5 16,7 3 2 9 5 E 1012,3 20 0 0,0
22.10.2020 07:00:00 14,0 13,4 12,7 15,6 16,7 3 1 6 3 ESE 1012,9 20 0 0,0
22.10.2020 06:00:00 13,9 13,3 11,8 15,6 16,7 5 3 8 4 E 1012,6 20 0 0,0
22.10.2020 05:00:00 13,2 12,6 11,4 15,6 16,7 0 0 5 3 N 1012,8 20 0 0,0
22.10.2020 04:00:00 12,7 12,1 10,0 15,7 16,7 3 1 7 4 SE 1013,1 17 0 0,0
22.10.2020 03:00:00 12,4 11,6 9,5 15,7 16,7 2 1 5 3 S 1013,1 16 0 0,0
22.10.2020 02:00:00 13,3 12,0 9,6 15,7 16,7 2 1 6 3 N 1013,0 20 0 0,0
22.10.2020 01:00:00 14,1 12,7 10,7 15,8 16,7 0 0 6 4 N 1012,2 20 0 0,0
22.10.2020 00:00:00 15,5 12,8 12,2 15,7 16,7 3 2 5 3 ESE 1011,7 20 0 0,0
21.10.2020 23:00:00 17,3 13,4 13,9 15,7 16,7 3 2 22 12 S 1011,6 20 0 0,0
21.10.2020 22:00:00 18,7 14,2 16,9 15,7 16,7 9 5 39 21 SE 1010,6 20 0 0,0
21.10.2020 21:00:00 19,0 14,0 17,5 15,6 16,7 18 10 29 16 SE 1010,2 20 0 0,0
21.10.2020 20:00:00 19,1 13,7 17,3 15,5 16,7 16 9 32 17 SE 1010,3 20 0 0,0
21.10.2020 19:00:00 19,9 14,3 18,8 15,5 16,7 16 9 33 18 SE 1009,7 20 13 0,0
21.10.2020 18:00:00 20,6 14,5 20,0 15,3 16,7 16 9 36 19 SE 1009,3 20 25 0,0
21.10.2020 17:00:00 21,4 14,8 21,4 15,2 16,7 20 11 39 21 SE 1008,5 19 36 0,0
21.10.2020 16:00:00 22,7 15,3 23,5 15,2 16,7 23 12 54 29 SSE 1008,0 19 52 0,0
21.10.2020 15:00:00 22,6 15,2 25,2 15,1 16,7 31 17 67 36 SSE 1007,7 20 60 0,0
21.10.2020 14:00:00 22,4 15,5 23,6 15,0 16,7 35 19 67 36 SSE 1007,2 19 47 0,0
21.10.2020 13:00:00 21,8 15,2 22,3 15,0 16,7 41 22 67 36 SSE 1007,4 20 49 0,0
21.10.2020 12:00:00 21,4 14,8 20,0 14,9 16,7 36 19 66 35 SSE 1006,8 20 17 0,0
21.10.2020 11:00:00 20,0 14,1 18,9 14,9 16,7 38 20 62 34 SSE 1006,7 20 0 0,0
21.10.2020 10:00:00 19,4 14,0 18,1 14,9 16,7 36 19 57 31 SSE 1006,4 20 0 0,0
21.10.2020 09:00:00 18,9 13,5 17,7 14,8 16,7 29 15 53 29 SE 1005,9 20 0 0,0
21.10.2020 08:00:00 18,7 13,5 17,9 14,8 16,7 34 18 61 33 SSE 1005,1 20 0 0,0
21.10.2020 07:00:00 18,9 13,1 18,0 14,8 16,7 29 16 53 28 SE 1005,4 20 0 0,0
21.10.2020 06:00:00 19,2 13,1 18,2 14,8 16,7 31 17 64 35 SSE 1005,4 20 0 0,0
21.10.2020 05:00:00 19,1 13,1 17,9 14,8 16,8 30 16 68 37 SSE 1004,3 20 0 0,0
21.10.2020 04:00:00 19,0 13,0 18,1 14,8 16,8 41 22 74 40 SSE 1003,6 20 0 0,0
21.10.2020 03:00:00 18,7 13,1 17,9 14,7 16,8 37 20 69 38 SE 1003,4 20 0 0,0
21.10.2020 02:00:00 18,8 13,0 18,1 14,7 16,8 48 26 91 49 SSE 1003,4 20 0 0,0
21.10.2020 01:00:00 19,1 12,6 18,1 14,7 16,8 51 28 91 49 SSE 1003,7 20 0 0,0
21.10.2020 00:00:00 18,8 12,3 18,1 14,7 16,8 54 29 89 48 SSE 1003,7 20 0 0,0
20.10.2020 23:00:00 18,9 11,9 17,9 14,6 16,8 40 22 80 43 SSE 1004,6 20 0 0,0
20.10.2020 22:00:00 18,8 11,8 17,5 14,6 16,8 48 26 77 42 SSE 1005,4 20 0 0,0
20.10.2020 21:00:00 18,2 12,0 17,3 14,6 16,8 35 19 66 36 SE 1006,6 20 0 0,0
20.10.2020 20:00:00 18,3 12,1 17,3 14,5 16,8 40 22 71 39 SSE 1006,9 20 0 0,0
20.10.2020 19:00:00 18,0 12,4 17,3 14,5 16,8 35 19 66 36 SSE 1007,1 20 0 0,0
20.10.2020 18:00:00 18,2 12,6 17,7 14,4 16,8 34 18 63 34 SE 1008,3 20 0 0,0
20.10.2020 17:00:00 18,0 12,7 17,7 14,4 16,8 31 17 59 32 SSE 1009,7 20 0 0,0
20.10.2020 16:00:00 18,1 12,5 17,9 14,3 16,8 34 19 57 31 SSE 1010,3 20 0 0,0
20.10.2020 15:00:00 18,3 12,5 18,5 14,2 16,8 23 13 44 24 SE 1011,0 20 0 0,0
20.10.2020 14:00:00 18,3 12,7 18,5 14,2 16,8 15 8 54 29 SSE 1012,2 20 0 0,0
20.10.2020 13:00:00 19,2 12,7 19,2 14,2 16,9 25 13 50 27 SSE 1012,1 20 0 0,0
20.10.2020 12:00:00 18,7 12,7 18,0 14,1 16,9 30 16 67 36 SSE 1011,6 20 0 0,0
20.10.2020 11:00:00 18,3 12,3 17,2 14,1 16,8 24 13 47 25 SSE 1011,5 20 0 0,0
20.10.2020 10:00:00 17,7 11,7 15,8 14,1 16,8 18 10 39 21 SE 1011,3 20 0 0,0
20.10.2020 09:00:00 16,4 10,9 14,4 14,1 16,9 9 5 17 9 ESE 1011,5 20 0 0,0
20.10.2020 08:00:00 15,7 10,5 13,7 14,0 16,9 8 4 16 9 ESE 1011,7 20 0 0,0
20.10.2020 07:00:00 15,6 10,4 13,5 14,1 16,9 4 2 23 13 SE 1013,0 20 0 0,0
20.10.2020 06:00:00 15,9 10,6 14,7 14,1 16,9 12 7 24 13 SE 1012,4 20 0 0,0
20.10.2020 05:00:00 16,0 10,7 14,4 14,1 16,9 11 6 24 13 ESE 1012,6 20 0 0,0
20.10.2020 04:00:00 15,4 10,8 13,4 14,2 16,9 13 7 19 11 SE 1013,0 20 0 0,0
20.10.2020 03:00:00 14,8 10,8 12,8 14,2 16,9 11 6 20 11 ESE 1013,5 20 0 0,0
20.10.2020 02:00:00 15,0 11,0 10,7 14,2 16,9 12 6 24 13 SE 1014,0 20 0 0,0
20.10.2020 01:00:00 12,5 10,0 10,8 14,2 16,9 7 4 16 9 ESE 1014,1 20 0 0,0
20.10.2020 00:00:00 12,8 10,0 10,7 14,2 16,9 8 4 16 9 E 1014,8 20 0 0,0
19.10.2020 23:00:00 13,7 10,1 11,6 14,2 16,9 8 4 25 13 SE 1015,5 20 0 0,0
19.10.2020 22:00:00 14,7 10,5 12,9 14,1 17,0 14 8 28 15 SE 1014,8 20 0 0,0
19.10.2020 21:00:00 15,1 10,3 13,2 14,1 16,9 14 7 28 15 SE 1014,9 20 0 0,0
19.10.2020 20:00:00 15,5 10,0 13,8 14,1 17,0 11 6 27 15 SE 1015,0 20 0 0,0
19.10.2020 19:00:00 16,7 9,9 15,4 13,9 17,0 16 9 31 17 SE 1015,0 20 41 0,0
19.10.2020 18:00:00 17,5 9,9 17,8 13,8 17,0 20 11 51 27 SSE 1015,1 20 47 0,0
19.10.2020 17:00:00 18,6 9,9 19,1 13,7 17,0 22 12 45 24 SE 1015,3 20 27 0,0
19.10.2020 16:00:00 18,9 9,1 20,6 13,6 17,0 24 13 41 22 SE 1015,5 20 43 0,0
19.10.2020 15:00:00 18,8 9,0 21,6 13,5 17,0 24 13 37 20 SSE 1016,1 20 60 0,0
19.10.2020 14:00:00 17,8 9,4 18,8 13,5 17,0 19 11 29 15 SSE 1017,1 20 55 0,0
19.10.2020 13:00:00 16,5 8,9 18,0 13,5 17,0 16 9 31 17 SSE 1018,5 20 41 0,0
19.10.2020 12:00:00 15,5 8,5 18,6 13,5 17,0 18 10 29 16 SE 1018,7 20 60 0,0
19.10.2020 11:00:00 11,8 8,6 10,8 13,6 17,0 0 0 8 5 N 1019,2 20 60 0,0
19.10.2020 10:00:00 8,2 7,1 6,2 13,7 17,0 3 1 6 3 E 1019,9 20 60 0,0
19.10.2020 09:00:00 5,0 4,6 0,2 13,8 17,0 3 2 5 3 ESE 1019,5 15 24 0,0
19.10.2020 08:00:00 3,3 2,6 -0,1 13,9 17,1 3 2 5 3 ESE 1019,8 16 0 0,0
19.10.2020 07:00:00 3,8 3,2 0,6 14,0 17,0 0 0 5 3 N 1020,2 11 0 0,0
19.10.2020 06:00:00 5,1 4,7 1,2 14,1 17,1 5 3 8 5 ENE 1020,6 20 0 0,0
19.10.2020 05:00:00 4,5 3,9 0,5 14,2 17,1 5 3 7 4 E 1021,0 18 0 0,0
19.10.2020 04:00:00 4,2 3,5 0,7 14,3 17,1 0 0 3 1 N 1021,6 11 0 0,0
19.10.2020 03:00:00 5,2 4,5 1,6 14,3 17,1 0 0 5 3 N 1022,1 10 0 0,0
19.10.2020 02:00:00 6,5 5,9 2,4 14,4 17,1 4 2 6 3 ENE 1021,7 20 0 0,0
19.10.2020 01:00:00 6,5 5,6 3,3 14,5 17,1 5 3 7 4 E 1021,8 15 0 0,0
19.10.2020 00:00:00 6,3 5,1 3,6 14,5 17,1 3 1 6 3 ESE 1022,3 11 0 0,0
18.10.2020 23:00:00 7,4 6,2 3,7 14,5 17,1 3 1 4 2 E 1022,2 13 0 0,0
18.10.2020 22:00:00 8,4 6,4 4,8 14,5 17,2 0 0 4 2 N 1021,7 17 0 0,0
18.10.2020 21:00:00 9,4 7,3 5,1 14,5 17,1 0 0 7 4 N 1021,7 20 0 0,0
18.10.2020 20:00:00 11,4 8,1 6,2 14,3 17,1 2 1 5 3 SSW 1021,6 20 0 0,0
18.10.2020 19:00:00 15,0 8,0 11,3 14,2 17,2 3 1 6 3 E 1021,0 20 43 0,0
18.10.2020 18:00:00 17,0 7,3 22,2 14,1 17,2 2 1 6 3 SE 1021,0 20 60 0,0
18.10.2020 17:00:00 17,5 7,8 23,6 13,9 17,2 3 2 11 6 SSE 1021,3 20 60 0,0
18.10.2020 16:00:00 18,2 7,9 23,5 13,8 17,2 3 1 13 7 S 1021,3 20 60 0,0
18.10.2020 15:00:00 16,9 7,3 23,2 13,7 17,2 6 3 12 6 SSE 1021,6 20 60 0,0
18.10.2020 14:00:00 16,2 7,7 22,3 13,6 17,2 4 2 8 5 SE 1022,5 20 60 0,0
18.10.2020 13:00:00 14,4 7,4 20,9 13,6 17,2 0 0 8 4 N 1023,0 20 60 0,0
18.10.2020 12:00:00 11,8 7,1 16,8 13,7 17,2 2 1 6 3 N 1023,3 19 60 0,0
18.10.2020 11:00:00 8,8 7,9 6,8 13,8 17,2 0 0 8 4 N 1023,5 20 60 0,0
18.10.2020 10:00:00 4,7 4,4 3,5 13,9 17,2 3 2 5 3 E 1023,2 1,3 41 0,0
18.10.2020 09:00:00 3,1 2,7 1,2 13,9 17,2 0 0 3 2 N 1023,1 2,5 0 0,0
18.10.2020 08:00:00 3,0 2,4 0,6 14,1 17,2 0 0 3 2 N 1022,7 0,8 0 0,0
18.10.2020 07:00:00 2,9 2,2 -0,1 14,2 17,2 0 0 3 1 N 1022,3 20 0 0,0
18.10.2020 06:00:00 3,5 2,9 0,0 14,3 17,2 0 0 3 1 N 1022,1 19 0 0,0
18.10.2020 05:00:00 3,5 2,8 0,6 14,4 17,3 0 0 3 2 N 1021,7 17 0 0,0

tt = temperature
td = dewpoint
tt 5cm = temperature 5cm
tt -20cm = temperature -20cm
tt -100cm = temperature -100cm
ff = wind speed
fx = gusts
dd = wind direction
ppp = reduced air pressure
vv = visibility
sd = sunshine duration
rr = precipitation

Next stations